Location: Unspecified
(0.0000°N, 0.0000°E)
Time: 21:24:09
(UTC+00:00)

DSAT - Visible Passes

Search period start: 19 April 2024 00:00
Search period end: 29 April 2024 00:00
Orbit: 492 x 643 km, 97.5° (Epoch: 18 April)

Date Brightness Start Highest point End Pass type
(mag) Time Alt. Az. Time Alt. Az. Time Alt. Az.
19 Apr ? 03:27:07 10° ENE 03:29:33 14° ESE 03:30:23 14° ESE visible
19 Apr ? 05:00:42 10° NNW 05:04:21 25° WNW 05:06:28 18° WSW visible
20 Apr ? 03:28:08 10° ENE 03:30:39 15° ESE 03:31:30 14° ESE visible
20 Apr ? 05:01:51 10° NNW 05:05:27 24° WNW 05:07:35 17° WSW visible
21 Apr ? 03:29:06 10° ENE 03:31:44 16° ESE 03:32:36 15° ESE visible
21 Apr ? 05:03:00 10° NNW 05:06:32 23° WNW 05:08:40 17° WSW visible
22 Apr ? 03:30:04 10° ENE 03:32:47 16° ESE 03:33:39 15° ESE visible
22 Apr ? 05:04:07 10° NNW 05:07:34 22° WNW 05:09:43 16° WSW visible
23 Apr ? 03:31:00 10° ENE 03:33:48 17° E 03:34:39 16° ESE visible
23 Apr ? 05:05:12 10° NNW 05:08:35 22° WNW 05:10:43 15° WSW visible
24 Apr ? 03:31:54 10° ENE 03:34:46 17° E 03:35:38 16° ESE visible
24 Apr ? 05:06:15 10° NNW 05:09:34 21° WNW 05:11:42 15° WSW visible
25 Apr ? 03:32:47 10° ENE 03:35:43 18° E 03:36:35 17° ESE visible
25 Apr ? 05:07:16 10° NNW 05:10:30 20° WNW 05:12:38 15° WSW visible
26 Apr ? 03:33:39 10° ENE 03:36:38 18° E 03:37:29 17° ESE visible
26 Apr ? 05:08:16 10° NNW 05:11:25 19° WNW 05:13:33 14° WSW visible
27 Apr ? 03:34:29 10° ENE 03:37:32 18° E 03:38:22 18° ESE visible
27 Apr ? 05:09:14 10° NNW 05:12:18 19° WNW 05:14:25 14° WSW visible
28 Apr ? 03:35:18 10° NE 03:38:23 19° E 03:39:12 18° ESE visible
28 Apr ? 05:10:10 10° NW 05:13:09 18° WNW 05:15:15 13° WSW visible
